Snowfall_Accumulation
0.1 4.0 5.8 0.2 0.2 0.1 0.0 0.3 0.3 0.0 0.0 0.0 0.0 0.0 0.0 0.0 0.0 0.0 0.0 0.0 0.0 0.0 0.0 0.0 0.0 0.0 0.0 0.0 0.0 0.0 0.0 0.0 0.0 0.0 0.0 0.0 0.0 0.0 0.0 0.0 0.0 0.0 0.0 0.0
6.7 4.6 0.0 0.0 0.0 0.2 0.5 1.8 2.6 0.0 0.0 0.0 0.0 0.0 0.0 0.0 0.0 0.0 0.0 0.0 0.0 0.0 0.0 0.0 0.0 0.0 0.0 0.0 0.0 0.0 0.0 0.0 0.0 0.0 0.0 0.0 0.0 0.0 0.0 0.0 0.0 0.0 0.0 0.0
3.6 0.1 0.0 0.6 0.5 1.9 1.6 3.1 1.5 0.6 0.2 0.1 0.0 0.8 0.0 0.0 0.0 0.0 0.0 0.0 0.0 0.0 0.0 0.0 0.0 0.0 0.0 0.0 0.0 0.0 0.0 0.0 0.0 0.0 0.0 0.0 0.0 0.0 0.0 0.0 0.0 0.0 0.0 0.0
3.1 0.0 0.4 1.2 1.3 0.1 3.5 0.0 0.3 0.6 3.9 5.7 0.1 4.6 0.1 0.0 0.0 0.0 0.0 0.0 0.0 0.0 0.0 0.0 0.0 0.0 0.0 0.0 0.0 0.0 0.0 0.0 0.0 0.0 0.0 0.0 0.0 0.0 0.0 0.0 0.0 0.0 0.0 0.0
5.0 0.7 1.2 2.7 0.1 0.1 1.2 0.1 0.7 1.1 3.9 1.4 2.5 2.3 0.1 0.0 0.0 0.0 0.0 0.0 0.0 0.0 0.0 0.0 0.0 0.0 0.0 0.0 0.0 0.0 0.0 0.0 0.0 0.0 0.0 0.0 0.0 0.0 0.0 0.0 0.0 0.0 0.0 0.0
4.0 0.0 0.2 0.1 0.0 0.0 0.0 1.2 0.4 1.8 5.3 13.1 1.8 2.3 1.1 0.1 0.0 0.0 0.0 0.0 0.0 0.0 0.0 0.0 0.0 0.0 0.0 0.0 0.0 0.0 0.0 0.0 0.0 0.0 0.0 0.0 0.0 0.0 0.0 0.0 0.0 0.0 0.0 0.0
1.3 1.9 0.0 0.0 0.5 0.1 1.0 6.2 15.5 14.9 19.1 7.7 2.4 1.5 3.3 0.6 0.1 0.0 0.0 0.0 0.0 0.0 0.0 0.0 0.0 0.0 0.0 0.0 0.0 0.0 0.0 0.0 0.0 0.0 0.0 0.0 0.0 0.0 0.0 0.0 0.0 0.0 0.0 0.0
9.7 12.5 5.3 0.5 0.5 1.4 1.7 4.4 5.6 6.8 7.9 4.6 4.5 8.1 1.9 0.5 0.2 0.0 0.0 0.0 0.0 0.0 0.0 0.0 0.0 0.0 0.0 0.0 0.0 0.0 0.0 0.0 0.0 0.0 0.0 0.0 0.0 0.0 0.0 0.0 0.0 0.0 0.0 0.0
6.2 5.8 0.1 0.5 0.5 0.4 3.9 8.2 0.3 4.7 4.5 6.5 6.2 3.1 0.9 1.3 1.6 0.2 0.0 0.0 0.1 0.0 0.0 0.0 0.0 0.0 0.0 0.0 0.0 0.0 0.0 0.0 0.0 0.0 0.0 0.0 0.0 0.0 0.0 0.0 0.0 0.0 0.0 0.0
2.9 8.2 3.7 2.6 1.0 1.4 4.2 0.9 8.8 6.3 13.1 9.9 5.6 3.8 3.2 3.3 4.7 1.3 0.6 0.1 0.2 0.1 0.0 0.0 0.0 0.0 0.0 0.0 0.0 0.0 0.0 0.0 0.0 0.0 0.0 0.0 0.0 0.0 0.0 0.0 0.0 0.0 0.0 0.0
1.9 7.5 8.6 0.5 4.4 4.2 3.7 7.0 3.9 3.6 2.5 3.6 3.5 4.3 4.8 4.2 2.9 1.8 1.3 0.2 0.3 0.5 0.2 0.1 0.0 0.0 0.0 0.0 0.0 0.0 0.0 0.0 0.0 0.0 0.0 0.0 0.0 0.0 0.0 0.0 0.0 0.0 0.0 0.0
0.6 2.6 9.5 7.3 0.0 0.1 1.1 3.2 1.8 3.9 3.7 1.2 0.7 4.4 4.4 3.7 3.5 1.4 1.4 0.7 0.5 0.7 0.4 0.4 0.0 0.0 0.0 0.0 0.0 0.0 0.0 0.0 0.0 0.0 0.0 0.0 0.0 0.0 0.0 0.0 0.0 0.0 0.0 0.0
0.3 7.7 11.7 6.0 3.5 0.1 1.5 0.8 1.1 1.8 0.3 2.7 4.3 3.8 3.6 3.1 3.0 3.2 2.5 2.2 1.9 1.3 0.6 0.3 0.1 0.0 0.0 0.0 0.0 0.0 0.0 0.0 0.0 0.0 0.0 0.0 0.0 0.0 0.0 0.0 0.0 0.0 0.0 0.0
nan 0.7 5.5 4.3 4.1 3.4 2.3 1.2 1.1 2.0 13.2 1.7 2.4 3.7 3.5 2.9 2.9 3.5 3.4 3.0 2.8 2.1 1.2 0.8 0.6 0.3 0.0 0.0 0.0 0.0 0.0 0.0 0.0 0.0 0.0 0.0 0.0 0.0 0.0 0.0 0.0 0.0 0.0 0.0
0.7 12.5 0.4 1.5 1.4 0.9 2.2 3.2 1.3 4.3 4.6 9.4 5.4 3.1 4.6 3.4 3.3 3.4 4.0 3.3 3.0 3.1 2.0 1.7 1.1 1.0 0.3 0.0 0.0 0.0 0.0 0.0 0.0 0.0 0.0 0.0 0.0 0.0 0.0 0.0 0.0 0.0 0.0 0.0
0.1 14.7 2.6 6.8 0.3 0.2 2.4 0.5 0.9 3.1 2.8 4.0 1.4 4.9 3.5 3.5 2.7 2.6 3.1 3.0 2.9 2.2 1.3 1.1 0.6 0.6 0.6 0.2 0.0 0.0 0.0 0.0 0.0 0.0 0.0 0.0 0.0 0.0 0.0 0.0 0.0 0.0 0.0 0.0
1.2 7.0 13.2 22.7 0.9 1.8 13.8 2.4 1.8 1.1 1.8 1.1 5.1 5.6 2.6 2.5 2.1 2.4 1.8 0.7 0.7 0.6 0.2 0.1 0.1 0.1 0.1 0.1 0.0 0.0 0.0 0.0 0.0 0.0 0.0 0.0 0.0 0.0 0.0 0.0 0.0 0.0 0.0 0.0
6.5 6.8 7.9 24.0 12.4 50.2 4.9 0.1 0.6 1.2 0.6 1.4 1.4 1.8 1.2 1.1 1.8 1.0 0.9 0.5 0.1 0.0 0.0 0.0 0.0 0.0 0.0 0.0 0.0 0.0 0.0 0.0 0.0 0.0 0.0 0.0 0.0 0.0 0.0 0.0 0.0 0.0 0.0 0.0
0.0 3.5 24.8 40.0 22.3 4.0 0.2 0.0 0.0 0.0 0.7 0.1 0.1 0.2 0.3 0.2 0.0 0.0 0.0 0.0 0.0 0.0 0.0 0.0 0.0 0.0 0.0 0.0 0.0 0.0 0.0 0.0 0.0 0.0 0.0 0.0 0.0 0.0 0.0 0.1 0.0 0.0 0.0 0.0
0.1 0.3 4.1 29.2 28.7 24.2 0.0 0.0 0.0 0.0 0.9 0.0 0.0 0.0 0.0 0.0 0.2 0.0 0.0 0.0 0.0 0.0 0.0 0.1 0.0 0.0 0.0 0.0 0.0 0.0 0.0 0.0 0.0 0.0 0.0 0.0 0.0 0.1 0.1 0.0 0.1 0.1 0.0 0.0
15.8 23.0 29.6 20.2 24.7 8.3 0.1 0.0 0.0 4.9 0.2 0.0 0.0 0.0 0.0 0.1 0.0 0.0 0.0 0.0 0.0 0.0 0.0 0.0 0.0 0.1 0.1 0.1 0.1 0.1 0.1 0.1 0.1 0.1 0.1 0.1 0.1 0.1 0.1 0.1 0.1 0.2 0.2 0.1
4.4 13.7 28.4 21.1 30.3 32.9 0.1 0.0 0.1 0.3 0.0 0.0 0.0 0.0 0.0 0.0 0.0 0.0 0.0 0.0 0.0 0.0 0.0 0.0 0.1 0.1 0.1 0.1 0.1 0.1 0.1 0.2 0.2 0.4 0.5 0.7 0.8 0.5 0.3 0.9 0.6 1.0 0.7 0.9
7.0 1.7 6.6 2.2 3.4 0.4 0.3 0.2 0.1 0.0 0.0 0.0 0.0 0.1 0.1 0.2 0.5 0.3 0.4 0.5 0.6 0.6 0.6 0.7 0.6 0.7 0.6 0.6 0.4 0.5 0.6 0.6 0.8 1.8 2.8 2.7 2.2 1.5 1.1 2.0 1.1 2.4 1.4 2.4
0.5 0.4 1.8 2.8 1.7 0.8 0.4 0.3 0.2 0.2 0.4 0.1 0.1 0.1 0.1 0.5 1.1 1.8 2.3 2.6 2.7 3.5 4.2 4.0 3.7 2.9 2.2 2.1 2.3 2.6 2.5 2.6 5.5 4.8 3.1 2.3 2.3 1.7 2.0 2.8 2.8 3.4 2.9 2.7
0.8 0.6 1.3 1.9 2.4 3.1 2.0 0.9 0.7 1.0 0.9 1.1 1.5 1.6 1.1 0.9 1.2 1.1 1.8 2.2 3.2 4.4 5.5 5.0 4.1 3.7 3.9 3.8 3.7 4.6 4.1 3.2 2.9 3.0 2.4 2.3 2.8 2.4 2.0 1.8 2.7 2.2 0.9 2.2
1.6 0.9 0.9 1.2 0.3 0.7 1.2 3.0 2.7 3.8 4.4 3.6 3.0 3.1 3.1 2.6 1.8 1.5 2.2 2.5 3.0 3.0 2.7 2.7 2.3 2.2 2.2 2.5 2.8 3.5 2.8 1.7 2.3 2.0 3.4 3.0 2.9 2.7 2.4 2.2 2.2 nan nan nan
Water_Equivalent
0.03 0.67 0.80 0.05 0.05 0.03 0.00 0.09 0.07 0.00 0.00 0.00 0.00 0.00 0.00 0.00 0.00 0.00 0.00 0.00 0.00 0.00 0.00 0.00 0.00 0.00 0.00 0.00 0.00 0.00 0.00 0.00 0.00 0.00 0.00 0.00 0.00 0.00 0.00 0.00 0.00 0.00 0.00 0.00
1.09 0.61 0.00 0.00 0.00 0.03 0.10 0.38 0.54 0.01 0.00 0.01 0.00 0.00 0.00 0.00 0.00 0.00 0.00 0.00 0.00 0.00 0.00 0.00 0.00 0.00 0.00 0.00 0.00 0.00 0.00 0.00 0.00 0.00 0.00 0.00 0.00 0.00 0.00 0.00 0.00 0.00 0.00 0.00
0.53 0.02 0.00 0.11 0.11 0.26 0.23 0.59 0.30 0.13 0.02 0.01 0.00 0.20 0.00 0.00 0.00 0.00 0.00 0.00 0.00 0.00 0.00 0.00 0.00 0.00 0.00 0.00 0.00 0.00 0.00 0.00 0.00 0.00 0.00 0.00 0.00 0.00 0.00 0.00 0.00 0.00 0.00 0.00
0.53 0.00 0.08 0.19 0.20 0.02 0.45 0.00 0.06 0.11 0.55 0.86 0.03 0.61 0.02 0.00 0.00 0.00 0.00 0.00 0.00 0.00 0.00 0.00 0.00 0.00 0.00 0.00 0.00 0.00 0.00 0.00 0.00 0.00 0.00 0.00 0.00 0.00 0.00 0.00 0.00 0.00 0.00 0.00
0.81 0.12 0.20 0.46 0.01 0.02 0.16 0.02 0.11 0.17 0.68 0.18 0.45 0.27 0.03 0.00 0.00 0.00 0.00 0.00 0.00 0.00 0.00 0.00 0.00 0.00 0.00 0.00 0.00 0.00 0.00 0.00 0.00 0.00 0.00 0.00 0.00 0.00 0.00 0.00 0.00 0.00 0.00 0.00
0.79 0.00 0.04 0.03 0.00 0.00 0.00 0.20 0.07 0.29 0.90 1.53 0.36 0.34 0.28 0.04 0.00 0.00 0.00 0.00 0.00 0.00 0.00 0.00 0.00 0.00 0.00 0.00 0.00 0.00 0.00 0.00 0.00 0.00 0.00 0.00 0.00 0.00 0.00 0.00 0.00 0.00 0.00 0.00
0.26 0.44 0.01 0.00 0.08 0.01 0.17 0.98 2.23 1.98 2.61 1.07 0.41 0.21 0.49 0.15 0.01 0.00 0.00 0.00 0.00 0.00 0.00 0.00 0.00 0.00 0.00 0.00 0.00 0.00 0.00 0.00 0.00 0.00 0.00 0.00 0.00 0.00 0.00 0.00 0.00 0.00 0.00 0.00
1.33 1.69 1.07 0.09 0.08 0.24 0.28 0.70 0.78 0.98 1.01 0.51 0.66 0.87 0.26 0.11 0.04 0.00 0.00 0.00 0.00 0.00 0.00 0.00 0.00 0.00 0.00 0.00 0.00 0.00 0.00 0.00 0.00 0.00 0.00 0.00 0.00 0.00 0.00 0.00 0.00 0.00 0.00 0.00
0.80 0.78 0.02 0.10 0.09 0.07 0.60 1.09 0.05 0.56 0.73 0.89 0.67 0.40 0.14 0.24 0.36 0.05 0.01 0.00 0.05 0.00 0.00 0.00 0.00 0.00 0.00 0.00 0.00 0.00 0.00 0.00 0.00 0.00 0.00 0.00 0.00 0.00 0.00 0.00 0.00 0.00 0.00 0.00
0.45 1.00 0.82 0.55 0.20 0.27 0.70 0.17 1.12 0.99 1.80 1.11 0.59 0.43 0.36 0.44 0.78 0.36 0.15 0.03 0.08 0.05 0.01 0.00 0.00 0.00 0.00 0.00 0.00 0.00 0.00 0.00 0.00 0.00 0.00 0.00 0.00 0.00 0.00 0.00 0.00 0.00 0.00 0.00
0.34 1.07 1.23 0.08 0.67 0.59 0.61 1.01 0.58 0.54 0.46 0.51 0.41 0.42 0.65 0.61 0.50 0.37 0.31 0.05 0.06 0.18 0.04 0.03 0.00 0.00 0.00 0.00 0.00 0.00 0.00 0.00 0.00 0.00 0.00 0.00 0.00 0.00 0.00 0.00 0.00 0.00 0.00 0.00
0.10 0.42 1.42 0.98 0.01 0.01 0.17 0.43 0.26 0.55 0.54 0.23 0.15 0.43 0.61 0.63 0.62 0.30 0.33 0.18 0.14 0.23 0.12 0.13 0.00 0.00 0.00 0.00 0.00 0.00 0.00 0.00 0.00 0.00 0.00 0.00 0.00 0.00 0.00 0.00 0.00 0.00 0.00 0.00
0.06 1.70 2.05 0.90 0.50 0.03 0.25 0.12 0.16 0.29 0.06 0.42 0.87 0.38 0.52 0.45 0.43 0.60 0.46 0.45 0.45 0.37 0.20 0.10 0.06 0.00 0.00 0.00 0.00 0.00 0.00 0.00 0.00 0.00 0.00 0.00 0.00 0.00 0.00 0.00 0.00 0.00 0.00 0.00
nan 0.13 0.88 0.62 0.47 0.49 0.31 0.16 0.18 0.36 2.26 0.26 0.29 0.38 0.41 0.35 0.36 0.48 0.51 0.51 0.58 0.47 0.31 0.20 0.17 0.07 0.01 0.00 0.00 0.00 0.00 0.00 0.00 0.00 0.00 0.00 0.00 0.00 0.00 0.00 0.00 0.00 0.00 0.00
0.13 2.49 0.07 0.23 0.23 0.14 0.44 0.44 0.19 0.62 0.74 1.59 0.62 0.35 0.52 0.42 0.40 0.46 0.59 0.51 0.49 0.53 0.38 0.36 0.24 0.21 0.06 0.01 0.00 0.01 0.00 0.00 0.00 0.00 0.00 0.01 0.00 0.00 0.00 0.00 0.00 0.00 0.00 0.00
0.03 3.17 0.40 1.21 0.05 0.04 0.40 0.09 0.15 0.59 0.44 0.56 0.21 0.55 0.47 0.49 0.40 0.35 0.43 0.44 0.41 0.32 0.19 0.17 0.10 0.09 0.10 0.03 0.00 0.00 0.00 0.01 0.00 0.00 0.00 0.00 0.00 0.01 0.00 0.00 0.00 0.00 0.00 0.00
0.34 1.61 2.81 4.06 0.15 0.29 2.17 0.25 0.19 0.13 0.24 0.16 0.75 0.66 0.35 0.31 0.26 0.30 0.25 0.10 0.10 0.08 0.03 0.01 0.01 0.01 0.02 0.02 0.00 0.00 0.00 0.00 0.00 0.00 0.00 0.00 0.00 0.00 0.00 0.00 0.00 0.00 0.00 0.00
1.98 2.07 2.00 4.64 2.50 7.59 0.66 0.01 0.07 0.14 0.07 0.18 0.18 0.24 0.17 0.14 0.22 0.13 0.13 0.06 0.01 0.00 0.00 0.00 0.00 0.00 0.00 0.00 0.00 0.00 0.00 0.00 0.00 0.00 0.00 0.00 0.00 0.01 0.00 0.00 0.00 0.00 0.00 0.00
0.00 0.88 4.64 7.29 3.80 0.61 0.04 0.00 0.00 0.00 0.07 0.01 0.01 0.02 0.05 0.03 0.01 0.00 0.00 0.00 0.00 0.00 0.00 0.00 0.00 0.00 0.00 0.00 0.00 0.00 0.00 0.00 0.00 0.00 0.01 0.01 0.01 0.01 0.01 0.02 0.01 0.01 0.01 0.01
0.03 0.06 1.03 5.65 5.13 3.34 0.01 0.00 0.00 0.00 0.19 0.00 0.00 0.00 0.00 0.00 0.08 0.00 0.00 0.00 0.00 0.00 0.00 0.02 0.00 0.00 0.00 0.00 0.00 0.00 0.00 0.01 0.01 0.01 0.01 0.01 0.01 0.02 0.02 0.02 0.02 0.02 0.02 0.02
2.97 4.61 5.15 3.50 4.58 1.56 0.02 0.00 0.00 0.79 0.04 0.00 0.00 0.00 0.00 0.03 0.00 0.00 0.00 0.00 0.00 0.00 0.00 0.00 0.00 0.01 0.01 0.01 0.01 0.02 0.02 0.02 0.01 0.02 0.02 0.02 0.02 0.03 0.02 0.03 0.03 0.05 0.06 0.04
0.64 2.11 4.59 3.44 5.07 5.00 0.02 0.01 0.02 0.06 0.00 0.01 0.00 0.00 0.00 0.00 0.00 0.00 0.00 0.00 0.00 0.00 0.00 0.00 0.01 0.01 0.01 0.02 0.01 0.02 0.02 0.02 0.03 0.05 0.06 0.10 0.14 0.10 0.06 0.22 0.15 0.27 0.18 0.24
1.08 0.26 1.18 0.29 0.61 0.05 0.04 0.03 0.01 0.00 0.00 0.00 0.00 0.01 0.01 0.03 0.05 0.04 0.04 0.05 0.05 0.06 0.05 0.07 0.07 0.07 0.06 0.06 0.05 0.06 0.05 0.05 0.09 0.24 0.47 0.48 0.41 0.30 0.23 0.44 0.23 0.59 0.31 0.62
0.07 0.04 0.30 0.35 0.17 0.08 0.04 0.04 0.02 0.03 0.05 0.01 0.01 0.02 0.02 0.06 0.11 0.16 0.19 0.20 0.20 0.23 0.27 0.28 0.27 0.21 0.16 0.18 0.21 0.24 0.20 0.21 0.77 0.68 0.36 0.28 0.32 0.27 0.31 0.57 0.64 0.86 0.69 0.60
0.09 0.06 0.13 0.20 0.21 0.32 0.18 0.09 0.08 0.10 0.08 0.10 0.13 0.15 0.10 0.09 0.11 0.10 0.15 0.18 0.22 0.27 0.35 0.36 0.34 0.31 0.33 0.31 0.30 0.44 0.35 0.28 0.31 0.35 0.24 0.27 0.43 0.40 0.29 0.29 0.49 0.41 0.16 0.52
0.14 0.07 0.13 0.22 0.03 0.07 0.13 0.31 0.25 0.24 0.26 0.23 0.21 0.21 0.22 0.18 0.13 0.12 0.16 0.17 0.21 0.21 0.20 0.21 0.17 0.17 0.18 0.22 0.27 0.38 0.37 0.22 0.28 0.21 0.45 0.45 0.44 0.40 0.35 0.36 0.37 nan nan nan
SL_Ratio
3.3 5.9 7.3 3.9 3.2 3.4 nan 3.9 3.9 nan nan nan nan nan nan nan nan nan nan nan nan nan nan nan nan nan nan nan nan nan nan nan nan nan nan nan nan nan nan nan nan nan nan nan
6.2 7.6 1.3 nan nan 5.2 5.6 4.7 4.8 2.5 nan 5.0 5.0 5.0 nan nan nan nan nan nan nan nan nan nan nan nan nan nan nan nan nan nan nan nan nan nan nan nan nan nan nan nan nan nan
6.7 3.5 nan 5.5 5.1 7.3 6.9 5.3 5.1 4.8 6.6 6.9 5.0 3.9 nan nan nan nan nan nan nan nan nan nan nan nan nan nan nan nan nan nan nan nan nan nan nan nan nan nan nan nan nan nan
5.9 nan 5.3 6.4 6.7 6.5 7.8 5.0 4.5 5.2 7.1 6.6 3.5 7.6 2.6 nan nan nan nan nan nan nan nan nan nan nan nan nan nan nan nan nan nan nan nan nan nan nan nan nan nan nan nan nan
6.1 5.7 6.0 5.7 6.1 6.0 7.0 5.6 6.8 6.6 5.7 7.5 5.6 8.8 2.7 nan nan nan nan nan nan nan nan nan nan nan nan nan nan nan nan nan nan nan nan nan nan nan nan nan nan nan nan nan
5.1 nan 5.4 3.3 nan 6.3 5.0 6.0 5.7 6.3 5.9 8.5 4.9 6.7 3.8 3.1 nan nan nan nan nan nan nan nan nan nan nan nan nan nan nan nan nan nan nan nan nan nan nan nan nan nan nan nan
4.9 4.3 2.4 7.5 6.0 6.3 5.9 6.3 7.0 7.5 7.3 7.2 5.8 7.1 6.8 4.3 5.9 nan nan nan nan nan nan nan nan nan nan nan nan nan nan nan nan nan nan nan nan nan nan nan nan nan nan nan
7.3 7.4 4.9 5.5 6.0 5.7 6.1 6.3 7.1 6.9 7.8 8.9 6.9 9.3 7.5 4.4 4.1 nan nan nan nan nan nan nan nan nan nan nan nan nan nan nan nan nan nan nan nan nan nan nan nan nan nan nan
7.7 7.3 4.4 5.5 5.6 5.3 6.6 7.6 5.1 8.4 6.2 7.3 9.2 7.6 6.3 5.5 4.4 3.1 2.8 nan 2.5 nan 0.0 nan nan nan nan nan nan nan nan nan nan nan nan nan nan nan nan nan nan nan nan nan
6.5 8.2 4.5 4.8 5.1 5.2 6.0 5.0 7.9 6.4 7.3 9.0 9.4 9.0 8.9 7.4 6.1 3.5 3.8 2.7 2.5 2.5 2.5 nan nan nan nan nan nan nan nan nan nan nan nan nan nan nan nan nan nan nan nan nan
5.8 6.9 7.0 5.5 6.5 7.1 6.1 6.9 6.7 6.7 5.4 7.0 8.5 10.2 7.4 6.8 5.9 5.0 4.1 4.0 4.8 2.7 4.0 3.5 nan nan nan nan nan nan nan nan nan nan nan nan nan nan nan nan nan nan nan nan
6.1 6.3 6.7 7.4 4.5 5.3 6.5 7.4 7.0 7.0 6.8 5.0 4.2 10.1 7.2 5.9 5.6 4.8 4.3 4.0 3.9 3.1 3.4 3.5 3.8 nan nan nan nan nan nan nan nan nan nan nan nan nan nan nan nan nan nan nan
5.9 4.5 5.7 6.7 7.0 4.6 6.2 7.0 6.6 6.2 5.7 6.6 4.9 10.0 7.0 6.9 6.9 5.3 5.5 4.9 4.2 3.6 2.8 2.9 2.7 3.3 nan nan nan nan nan nan nan nan nan nan nan nan nan nan nan nan nan nan
nan 5.0 6.3 7.0 8.7 7.0 7.4 7.7 6.4 5.6 5.9 6.5 8.4 9.8 8.6 8.2 8.0 7.2 6.7 5.8 4.9 4.5 4.0 3.8 3.9 4.1 2.6 3.0 2.5 2.0 2.5 nan nan nan nan nan nan nan nan nan nan nan nan nan
5.5 5.0 5.4 6.6 6.3 6.4 5.1 7.2 6.7 7.0 6.2 5.9 8.7 8.7 8.7 8.2 8.0 7.4 6.7 6.4 6.0 5.8 5.2 4.7 4.5 4.7 4.7 2.5 1.7 2.8 nan 3.0 2.5 5.0 2.0 2.6 0.0 nan 0.0 nan nan nan nan nan
4.1 4.6 6.4 5.6 5.7 4.8 6.0 5.8 6.2 5.3 6.3 7.0 6.7 8.9 7.5 7.1 6.8 7.4 7.2 6.9 7.0 7.0 6.8 6.4 6.5 6.1 5.9 5.1 nan nan 2.5 2.2 0.0 nan 1.7 nan nan 2.5 nan nan nan nan nan nan
3.6 4.4 4.7 5.6 5.7 6.2 6.3 9.6 9.3 8.4 7.7 6.7 6.8 8.5 7.5 8.2 8.1 8.0 7.2 7.0 7.3 7.4 7.2 7.1 7.2 7.3 7.0 6.1 5.0 nan nan nan nan nan nan nan nan 0.0 nan nan nan nan nan nan
3.3 3.3 3.9 5.2 5.0 6.6 7.4 6.5 8.5 8.5 8.5 7.8 7.6 7.7 7.2 7.9 7.9 7.8 7.3 7.1 7.2 7.1 10.0 7.5 nan nan nan nan nan nan nan nan nan 5.0 2.5 2.5 2.5 2.5 2.1 5.0 3.3 0.0 nan nan
5.0 4.0 5.4 5.5 5.9 6.5 5.4 6.0 5.0 10.0 10.1 7.5 7.0 6.7 6.6 6.6 5.5 8.0 6.0 nan nan nan nan nan nan nan nan nan nan nan nan 2.5 3.3 2.1 2.5 3.0 2.5 2.8 2.6 3.1 2.7 2.7 2.8 2.3
4.4 5.1 4.0 5.2 5.6 7.2 5.0 5.0 nan nan 4.8 nan nan nan nan nan 2.5 7.5 nan nan nan nan nan 5.7 5.0 nan nan nan nan nan 2.9 2.8 3.3 3.2 3.1 3.1 3.2 3.5 3.9 3.1 3.3 2.8 2.5 2.7
5.3 5.0 5.8 5.8 5.4 5.3 5.2 nan nan 6.2 4.9 nan nan nan nan 2.6 5.0 5.0 nan nan nan nan nan nan nan 6.0 6.1 5.0 4.7 6.0 6.4 6.0 5.0 4.8 4.6 4.4 3.9 3.6 3.0 3.2 3.3 3.2 3.3 3.4
7.0 6.5 6.2 6.1 6.0 6.6 4.8 2.5 5.4 5.0 5.0 2.8 nan 5.0 5.0 nan 6.7 10.0 nan 10.0 6.7 9.3 10.0 5.0 4.7 5.3 5.2 5.0 5.0 5.9 6.6 6.9 7.2 7.7 7.9 6.8 5.8 5.6 4.4 4.1 4.0 3.7 4.0 3.7
6.5 6.4 5.6 7.5 5.6 7.8 7.2 7.2 7.5 nan nan nan 5.0 7.5 7.1 7.9 8.8 8.7 10.5 10.8 11.4 10.6 10.7 10.3 9.1 9.6 9.9 9.6 8.8 9.1 10.3 10.2 9.7 7.5 6.1 5.7 5.3 5.1 5.1 4.5 4.7 4.1 4.6 3.9
7.2 9.6 5.9 7.9 9.7 10.0 8.4 8.0 8.1 7.6 8.0 8.3 7.1 6.9 8.0 9.1 10.4 11.3 11.9 12.7 13.3 15.0 15.8 14.1 13.5 13.8 13.6 11.8 10.8 10.9 12.3 12.5 7.1 7.1 8.7 8.3 7.3 6.3 6.6 4.9 4.4 4.0 4.2 4.6
8.2 9.4 10.1 9.6 11.5 9.7 11.6 9.9 8.5 10.1 10.4 11.0 11.4 10.9 10.2 10.2 11.5 11.5 12.2 12.8 14.2 16.2 15.4 13.8 12.1 11.8 12.0 12.2 12.4 10.6 11.6 11.4 9.4 8.6 10.1 8.6 6.5 6.1 7.0 6.3 5.4 5.4 5.4 4.3
11.6 12.5 6.9 5.3 9.7 9.5 9.0 9.6 10.9 16.2 17.1 16.1 14.2 14.5 14.1 14.4 13.8 12.3 14.0 14.2 14.3 14.3 13.7 13.1 13.4 13.0 12.7 11.3 10.6 9.0 7.7 7.5 8.0 9.7 7.6 6.7 6.5 6.6 6.6 6.3 5.8 nan nan nan